Flag for USA

Past Weather in Atascadero, California, USA — Yesterday and Last 2 Weeks

Now
66 °F

Clear.


Feels Like: 66 °F
Forecast: 94 / 55 °F
Wind: 3 mph from North

Location: Paso Robles Municipal Airport
Current Time: Sep 29, 2020 at 12:29:04 am
Latest Report: Sep 28, 2020 at 11:53 pm
Visibility: 10 mi
Pressure29.95 "Hg
Humidity: 61%
Dew Point: 52 °F
Location of AtascaderoLocation

Past Weather in Atascadero — Graph

°F

Atascadero Temperature Yesterday

Maximum temperature yesterday: 104 °F (at 2:53 pm)
Minimum temperature yesterday: 57 °F (at 6:53 am)
Average temperature yesterday: 78 °F

High & Low Weather Summary for the Past Weeks

 TemperatureHumidityPressure
High104 °F (Sep 28, 2:53 pm)97% (Sep 14, 6:53 am)30.08 "Hg (Sep 14, 6:53 am)
Low46 °F (Sep 16, 6:53 am)9% (Sep 16, 4:53 pm)29.79 "Hg (Sep 27, 5:53 pm)
Average71 °F51%29.95 "Hg
* Reported Sep 13 10:53 pm — Sep 28 10:53 pm, Atascadero. Weather by CustomWeather, © 2020

Note: Actual official high and low records may vary slightly from our data, if they occured in-between our weather recording intervals... More about our weather records

Atascadero Weather History for the Previous 24 Hours

Scroll right to see more
 ConditionsComfort  
Time TempWeatherWind HumidityBarometerVisibility
10:53 pm
Mon, Sep 28
70 °FClear.No wind53%29.94 "Hg10 mi
9:53 pm73 °FClear.5 mph50%29.93 "Hg10 mi
8:53 pm78 °FClear.6 mph40%29.90 "Hg10 mi
7:53 pm82 °FClear.8 mph34%29.88 "Hg10 mi
6:53 pm87 °FClear.7 mph28%29.87 "Hg10 mi
5:53 pm92 °FSunny.10 mph27%29.85 "Hg10 mi
4:53 pm101 °FSunny.14 mph13%29.83 "Hg10 mi
3:53 pm103 °FSunny.14 mph11%29.83 "Hg10 mi
2:53 pm104 °FSunny.15 mph12%29.84 "Hg10 mi
1:53 pm101 °FSunny.9 mph16%29.86 "Hg10 mi
12:53 pm99 °FSunny.9 mph19%29.89 "Hg10 mi
11:53 am91 °FSunny.3 mph26%29.92 "Hg10 mi
10:53 am83 °FSunny.3 mph34%29.93 "Hg10 mi
9:53 am76 °FSunny.No wind40%29.94 "Hg10 mi
8:53 am68 °FSunny.No wind51%29.93 "Hg10 mi
7:53 am60 °FSunny.No wind65%29.93 "Hg10 mi
6:53 am57 °FClear.3 mph69%29.91 "Hg10 mi
5:53 am59 °FClear.No wind67%29.90 "Hg10 mi
4:53 am59 °FClear.No wind64%29.89 "Hg10 mi
3:53 am61 °FClear.No wind62%29.88 "Hg10 mi
2:53 am63 °FClear.3 mph58%29.88 "Hg10 mi
1:53 am64 °FClear.No wind54%29.88 "Hg10 mi
12:53 am66 °FClear.3 mph52%29.88 "Hg10 mi
Weather by CustomWeather, © 2020

See weather overview